This demonstration page uses our WeatherBlox Daily Observations layout. Learn more.

Hourly Observations for August 1, 2020

Temp ( °F °C ) Dew Point ( °F °C ) Humidity (%) Winds ( mph kmh ) Pressure ( in mb ) Visibility ( mi km ) Precip ( " mm )
12:51 am 00:51 Clear 88 31.1 54 12.2 31 31 ESE 10 17 29.8 1009 10 16.0934 0 0
1:51 am 01:51 Clear 86 30 52 11.1 31 31 E 12 19 29.81 1010 10 16.0934 0 0
2:51 am 02:51 Clear 84 28.9 51 10.6 32 32 E 9 15 29.84 1011 10 16.0934 0 0
3:51 am 03:51 Clear 85 29.4 53 11.7 33 33 E 13 20 29.85 1011 10 16.0934 0 0
4:51 am 04:51 Clear 84 28.9 55 12.8 37 37 E 13 20 29.85 1011 10 16.0934 0 0
5:51 am 05:51 Sunny 84 28.9 55 12.8 37 37 E 17 28 29.86 1011 10 16.0934 0 0
6:51 am 06:51 Sunny 87 30.6 55 12.8 34 34 E 13 20 29.88 1012 10 16.0934 0 0
7:51 am 07:51 Sunny 90 32.2 53 11.7 28 28 ESE 12 19 29.91 1013 10 16.0934 0 0
8:51 am 08:51 Sunny 92 33.3 53 11.7 27 27 SE 8 13 29.91 1013 10 16.0934 0 0
9:51 am 09:51 Sunny 94 34.4 53 11.7 25 25 Calm 29.9 1013 10 16.0934 0 0
10:51 am 10:51 Sunny 96 35.6 53 11.7 23 23 WSW 5 7 29.89 1012 10 16.0934 0 0
11:51 am 11:51 Sunny 99 37.2 53 11.7 21 21 VRB 6 9 29.87 1011 10 16.0934 0 0
12:51 pm 12:51 Sunny 102 38.9 53 11.7 19 19 WSW 8 13 29.83 1010 10 16.0934 0 0
1:51 pm 13:51 Sunny 105 40.6 53 11.7 18 18 W 9 15 29.79 1009 10 16.0934 0 0
2:51 pm 14:51 Sunny 106 41.1 51 10.6 16 16 W 14 22 29.76 1008 10 16.0934 0 0
3:51 pm 15:51 Sunny 105 40.6 54 12.2 18 18 W 15 24 29.74 1007 10 16.0934 0 0
4:34 pm 16:34 Mostly Cloudy with Nearby Thunderstorms 98 36.7 53 11.7 22 22 ENE 15 24 29.66 1004 10 16.0934 0 0
4:49 pm 16:49 Cloudy with Thunderstorms 97 36 55 13 25 25 ENE 21 33 29.66 1004 10 16.0934 0 0
4:51 pm 16:51 Cloudy with Thunderstorms 97 36.1 55 12.8 24 24 E 20 31 29.77 1008 10 16.0934 0 0
5:38 pm 17:38 Mostly Cloudy with Light Thunderstorms 83 28.3 60 15.6 46 46 SE 17 28 29.77 1008 10 16.0934 0.001 0.001
5:51 pm 17:51 Partly Cloudy with Thunderstorms 85 29.4 60 15.6 43 43 E 14 22 29.79 1009 10 16.0934 0.001 0.001
5:57 pm 17:57 Mostly Cloudy with Nearby Thunderstorms 85 29.4 61 16.1 45 45 ENE 16 26 29.74 1007 10 16.0934 0 0
6:28 pm 18:28 Mostly Cloudy with Nearby Thunderstorms 82 27.8 61 16.1 49 49 SW 25 41 29.83 1010 4 6.43736 0 0
6:51 pm 18:51 Mostly Cloudy with Thunderstorms 82 27.8 61 16.1 49 49 N 15 24 29.92 1013 8 12.87472 0 0
7:07 pm 19:07 Mostly Cloudy with Nearby Thunderstorms 72 22.2 65 18.3 79 79 N 14 22 29.94 1014 6 9.65604 0.08 2.032
7:21 pm 19:21 Mostly Cloudy with Light Thunderstorms 73 22.8 67 19.4 81 81 NW 12 19 29.95 1014 10 16.0934 0.12 3.048
7:51 pm 19:51 Mostly Cloudy with Nearby Thunderstorms 75 23.9 69 20.6 82 82 NE 9 15 29.92 1013 10 16.0934 0.12 3.048
8:07 pm 20:07 Partly Cloudy 78 25.6 66 18.9 67 67 SE 5 7 29.9 1012 10 16.0934 0.001 0.001
8:51 pm 20:51 Clear 76 24.4 68 20 77 77 Calm 29.91 1013 10 16.0934 0.001 0.001
9:51 pm 21:51 Clear 77 25 67 19.4 71 71 S 5 7 29.86 1011 10 16.0934 0 0
10:51 pm 22:51 Clear 77 25 68 20 74 74 NNE 5 7 29.89 1012 10 16.0934 0 0
11:51 pm 23:51 Clear 76 24.4 71 21.7 85 85 NE 5 7 29.9 1012 10 16.0934 0 0

Powered by AerisWeather